User: anonymous   Login
Location: Lake Crest
(37.6062°N, 88.9176°W)
Time: 13:16:18
(UTC+00:00)
Language:

USA 229 DEB - Orbit

View from above orbital plane
View from above orbital plane
View from above satellite
View from above satellite

Ground track
Ground track

The orbit data is extracted from the following two-line orbital elements,

1 37391U 11014B   20037.23421556 0.00000000  00000-0  00000-0 0    03
2 37391  63.4418  82.7248 0154000 359.1892   0.8108 13.40797389    07
Epoch (UTC): 06 February 2020 05:37:16
Eccentricity: 0.0154000
inclination: 63.4418°
perigee height: 991 km
apogee height: 1221 km
right ascension of ascending node: 82.7248°
argument of perigee: 359.1892°
revolutions per day: 13.40797389
mean anomaly at epoch: 0.8108°
orbit number at epoch: 0

The dashed part of the orbit path shows where the satellite is in the earth's shadow,  

DLR